OBJECT C, 61229

Orbit data source: Space-Track

You're viewing an Uncataloged Satellite

Recently launched and/or uncataloged satellites may have evolving metadata. Metadata may include but not limited to: Owner, Maufacturer, Bus, Motor, and Mission.

OBJECT C, 61229 is a Chinese satellite in SSO that was launched on Tue, 24 Sep 2024 UTC via a JIELONG-3 launch vehicle from the Yellow Sea Launch Area, China (YSLA). Unknown objects in Earth's orbit typically refer to objects detected orbiting the Earth but have not yet been identified or cataloged. These objects could be anything from previously untracked satellites, spent rocket stages, debris from satellite collisions, or even natural meteoroids temporarily captured by Earth's gravity.

Loading next visibility...
Identifier
61229, 2024-173C
Orbit
SSO
Country
Flag of CNCN / PRC
Related business
None
Manufacturer
Unknown
Mission
Operational Amateur Imaging
Bus & Motor
Unknown
Mass
Unknown
Launch date (UTC)
2024-09-24 (1 year ago)
Launch vehicle
JIELONG-3
Launch site
Yellow Sea Launch Area, China (YSLA)
Object type
Unknown
Shape & HBR
Box + 1 Pan, 1.0 m
Radar Cross Section
3.032 m², Medium (>0.1 m² and < 1m²)

Expand to show TLE details & history
Last TLE update: 4 hours ago

TLE from 4 hours ago
0 OBJECT C
1 61229U 24173C   26036.52142588  .00040000  00000-0  95027-3 0  9999
2 61229  97.3518 117.5672 0012346 259.6985 100.2870 15.41492575 76390
Epoch: 2026-02-05T12:30Z
TLE epoch observation values (Epoch: 2026-02-05T12:30:51.196Z)
Latitude
-0.00001°
Longitude
154.18143°
Altitude
446.338 km
Speed
7.644 km/s
True Right ascension
07h 50m 16s
True Declination
0° 00' 00"
Sunlit
Object was in full shadow at epoch
Visualization orbit readout
Latitude
Unknown
Longitude
Unknown
Altitude
Unknown
Speed
Unknown
Apparent Right ascension
Unknown
Apparent Declination
Unknown
Sunlit
N/A
Visualization observer readout
Local Sidereal Time
18:14:14
Azimuth
Unknown
Elevation
Unknown
Doppler factor
Unknown
Orbital elements
Apogee altitude
447.054 km
Perigee altitude
430.222 km
Semi-major axis
6,816.775 km
Eccentricity
0.00123
Inclination
97.3518°
RAAN
117.5672°
Arg. of periapsis
259.6985°
True anomaly
100.42616°
Mean anomaly
100.287°
Eccentric anomaly
100.35658°
Mean motion
3.85633 °/min
Orbital period
93.35 mins
BSTAR
0.00095027
Loading maneuver chart data...
Computing Atmospheric mass density...
Loading historical data...
Loading historical data...
Loading historical data...
Loading historical data...
Loading historical data...
Loading historical data...
Loading historical data...

Documentation

Showing up to 5 results
|